Location: Unspecified
(43.4680°N, 87.1740°E)
Time: 05:34:27
(UTC+00:00)

FENGYUN 3A - Pass Details

Date: 17 April 2021
Orbit: 823 x 837 km, 98.4° (Epoch: 16 May)

Event Time Altitude Azimuth Distance (km) Brightness Sun altitude
Rises 22:08:55 0° 16° (NNE) 3,377 7.6 -13.4°
Reaches altitude 10° 22:11:19 10° 20° (NNE) 2,437 6.8 -13.1°
Maximum altitude 22:16:39 62° 101° (E) 929 4.2 -12.2°
Drops below altitude 10° 22:21:57 10° 182° (S) 2,414 5.8 -11.4°
Sets 22:24:19 0° 186° (S) 3,342 6.5 -11.0°
